Retour au catalogue

STARLINK-34953

ActifCommunicationsSSO
NORAD 65240·PAYLOAD·🇺🇸 United States

Lancé Aug 18, 2025 depuis Vandenberg Space Force Base

Loading…

Prochains Passages (prochaines 24 heures)

TLE

FraisSource: CelesTrak SupGP

Époque: Sep 14, 2026, 23:08 UTC

1 65240C 25179F   26257.96437500  .00060010  00000+0  18633-2 0  2573
2 65240  97.2831 297.3767 0001158 106.6735 310.9848 15.33401550    14

Suivez STARLINK-34953 en temps réel avec AllMySat

Download on the App Store